Regional Weather Roundup
Issued by NWS Austin/San Antonio, TX

Home | Current Version | Previous Version | Text Only | Print | Product List | Glossary On
Versions: 1 2 3 4 5 6 7 8 9 10 11 12 13 14 15 16 17 18 19 20 21 22 23 24 25 26 27 28 29 30 31 32 33 34 35 36 37 38 39 40 41 42 43 44 45 46 47 48 49 50
000
ASUS44 KEWX 180101
RWREWX
SOUTH TEXAS REGIONAL WEATHER ROUNDUP
NATIONAL WEATHER SERVICE AUSTIN/SAN ANTONIO TX
700 PM CST SUN FEB 17 2019

NOTE: "FAIR" INDICATED FEW OR NO CLOUDS BELOW 12,000 FEET WITH NO
SIGNIFICANT WEATHER AND/OR OBSTRUCTIONS TO VISIBILITY.

* - THESE STATIONS ARE NOT NWS OR FAA STATIONS...AND ARE NOT SUBJECT
    TO NWS AND FAA QUALITY CONTROL.

TXZ171-172-183>190-180200-
TEXAS HILL COUNTRY AND EDWARDS PLATEAU

CITY           SKY/WX    TMP DP  RH WIND       PRES   REMARKS
JUNCTION       CLOUDY    55  31  39 NE9       29.93R
*LLANO         CLEAR     55  34  44 NE7       29.98S
BURNET         CLEAR     52  33  48 NE7       29.96R
*HORSESHOE BAY CLEAR     54  34  46 NE3       29.95R
*KERRVILLE     CLEAR     56  33  40 NE6       29.92R
*FREDERICKSBRG CLEAR     52  33  47 NE7       29.93R
*ROCKSPRINGS   CLOUDY    55  25  30 NE7G13    29.94R
*BOERNE STAGE  CLEAR     55  32  41 N7        29.92R
*CASTROVILLE   CLEAR     61  31  32 NE9       29.90R
HONDO          CLEAR     63  33  32 NE14      29.88R
*UVALDE        CLEAR     62  34  34 NE10      29.87R
DEL RIO        MOCLDY    69  28  21 CALM      29.83R
LAUGHLIN AFB   MOCLDY    65  32  29 CALM      29.83R
CARRIZO SPRGS  CLEAR     68  30  24 E7        29.84R
*FAITH RANCH   CLEAR     68  30  24 NE7       29.84R
$$

TXZ173-191>194-202-209-217>225-228-180200-
CENTRAL AND SOUTH CENTRAL TEXAS

CITY           SKY/WX    TMP DP  RH WIND       PRES   REMARKS
GEORGETOWN     CLOUDY    51  36  56 NE6       29.99R
AUSTIN/BERGSTM PTCLDY    55  36  48 N15       29.94R
AUSTIN/MABRY   CLOUDY    55  34  45 NE9G17    29.95R
*AUSTIN/EXEC   CLOUDY    52  36  54 N10       29.96R
*LAGO VISTA    CLEAR     53  27  36 NE12      29.95R
SAN MARCOS     CLEAR     54  36  50 NE14      29.93R
NEW BRAUNFELS  CLEAR     55  39  54 NE13      29.90R
RANDOLPH AFB   CLEAR     59  37  43 NE10      29.90R
PT SAN ANTONIO CLEAR     61  36  39 NE14      29.88R
SAN ANTONIO    MOCLDY    59  35  40 NE9       29.90R
STINSON FIELD  CLEAR     63  33  32 NE9       29.87R
*LA GRANGE     CLOUDY    54  41  62 N7        29.93R
*GIDDINGS      CLOUDY    56  41  57 N7        29.95R
*GONZALES      CLOUDY    55  41  59 N9        29.91R
$$

TXZ163>164-176>182-195>201-210>213-226-227-235-180200-
SOUTHEAST TEXAS

CITY           SKY/WX    TMP DP  RH WIND       PRES   REMARKS
COLLEGE STN    CLOUDY    52  38  58 N9        29.96R
*BRYAN         CLOUDY    51  36  57 N8        29.96R
*CALDWELL      CLOUDY    53  38  58 N7        29.95R
*CROCKETT        N/A     48  37  66 N5        29.98R WCI  46
*BRENHAM       CLOUDY    53  43  69 N6        29.94R
HUNTSVILLE     CLOUDY    50  41  71 NE3       29.94R
CONROE         CLEAR     51  45  79 VRB3      29.95R
HOUSTON BUSH   PTCLDY    55  45  68 N10       29.92R
HOUSTON HOBBY  MOCLDY    57  43  59 N16       29.90R
*HOUSTON SW AP FAIR      57  45  63 N8        29.91R
PEARLAND       FAIR      57  48  72 N12       29.91R
HOUSTON HOOKS  FAIR      54  43  66 N7        29.93R
ELLINGTON FLD  PTCLDY    61  50  67 N7        29.92
SUGAR LAND     FAIR      57  45  64 N12       29.90R
*HOUSTON EXEC  FAIR      52  45  76 N9        29.94R
*CLEVELAND MUN FAIR      52  45  76 N3        29.94R
*WHARTON       CLEAR     55  42  63 N10       29.91R
*COLUMBUS      FAIR      55  42  61 N7        29.92R
*EAGLE LAKE    CLOUDY    53  44  70 NE9       29.91
$$

TXZ214>216-236>238-180200-
THE UPPER TEXAS COAST

CITY           SKY/WX    TMP DP  RH WIND       PRES   REMARKS
*ORANGE        CLOUDY    51  49  93 N10G18    29.92R
PORT ARTHUR    CLOUDY    53  47  79 N15       29.90R
GALVESTON      CLOUDY    57  49  74 N20G29    29.89R
ANGLETON       FAIR      57  50  77 N10       29.88R
*BAY CITY      CLEAR     59  50  73 N8        29.88R
PALACIOS       CLEAR     58  48  69 N14       29.86R
$$

TXZ229>234-239>247-180200-
TEXAS COASTAL BEND AND RIO GRANDE PLAINS

CITY           SKY/WX    TMP DP  RH WIND       PRES   REMARKS
VICTORIA       CLEAR     57  43  59 N14       29.88R
*BEEVILLE      CLEAR     64  41  41 N14       29.82F
ROCKPORT       CLEAR     61  47  59 NE14      29.84R
*PORT ARANSAS  CLEAR     64  52  65 NE15      29.85R
*PORT LAVACA   CLEAR     60  48  64 N15       29.87R
*INGLESIDE     CLEAR     66  49  55 NE10      29.83R
CORPUS CHRISTI PTCLDY    65  45  48 NE14      29.83R
CORPUS NAS     CLEAR     67  51  56 NE15      29.83R
*ROBSTOWN      NOT AVBL
ALICE          CLEAR     67  42  40 NE12      29.83R
KINGSVILLE NAS PTCLDY    67  45  45 NE10      29.82R
COTULLA        CLEAR     67  37  33 E12       29.85R
LAREDO         CLEAR     73  33  23 E12       29.82R
$$

TXZ248>255-180200-
DEEP SOUTH TEXAS

CITY           SKY/WX    TMP DP  RH WIND       PRES   REMARKS
BROWNSVILLE    CLOUDY    65  61  87 N9G22     29.81R
PORT ISABEL    CLOUDY    62  57  83 N17       29.80R
HARLINGEN      MOCLDY    65  55  70 NE17      29.81R
*HEBBRONVILLE  CLEAR     70  33  25 CALM      29.83R
MCALLEN        MOCLDY    72  64  76 E9        29.81R
*WESLACO       CLOUDY    67  60  78 E12       29.80
FALFURRIAS     CLEAR     69  43  39 NE6       29.82R
EDINBURG       MOCLDY    71  62  72 E13       29.80R
*ZAPATA        FAIR      73  36  25 NE7       29.83R
$$

TXZ213>215-236>238-242>244-246-247-251-254-255-180200-
CMAN STATIONS

STATION/POSITION TIME  TEMP    WIND        PRES    WAVE
                       AIR SEA DIR/SP/G            HT/PER
                 (UTC) (F)     (DEG/KT/KT) (MB)    (FT/S)
SABINE PASS      0030          360/ 18/ 23 1013.6
SEA RIM ST PARK  0000   52     360/ 15/ 18 1011.4
NORTH JETTY/GLS  0030           20/ 25/ 27 1010.9
EAGLE POINT      0036   57 63   30/ 13/ 19 1012.2
MORGANS POINT    0036   57 61  360/  9/ 11 1012.2
PORT O`CONNOR    0030           10/ 24/ 27 1010.4
PORT ARANSAS     0000   64 60   20/ 14/ 15 1008.8
MALAQUITE BEACH  0030   63 63   20/ 14/ 16 1009.2
BAFFIN BAY       0030   63 69   30/ 15/ 20 1009.6
PORT ISABEL      0030   62 64  360/ 15/ 21 1008.7
$$




USA.gov is the U.S. government's official web portal to all federal, state and local government web resources and services.